SCP
0 0 0 0 0 0 0 0 0 0 0 0 1 2 2 2 2 2 2 2 3 4 4 4 4 3 2 1 1 0 0 0 0 0 0 0 0 0 0 0 0 0 0 0
0 0 0 0 0 0 0 0 0 1 1 1 1 2 2 2 2 1 1 2 3 3 3 3 3 2 1 1 0 0 0 0 0 0 0 0 0 0 0 0 0 0 0 0
0 0 0 0 0 0 0 0 0 1 1 1 1 1 1 1 1 1 1 2 2 2 2 2 2 2 1 1 0 0 0 0 0 0 0 0 0 0 0 0 0 0 0 0
0 0 0 0 0 0 0 0 0 0 0 0 0 0 1 1 1 1 2 2 2 1 1 1 1 1 1 0 0 0 0 0 0 0 0 0 0 0 0 0 0 0 0 0
0 0 0 0 0 0 0 0 0 0 0 0 0 0 0 0 1 1 1 1 1 1 1 1 1 1 0 0 0 0 0 0 0 0 0 0 0 0 0 0 0 0 0 0
0 0 0 0 0 0 0 0 0 0 0 0 0 0 0 0 0 1 1 1 1 1 1 1 0 0 0 0 0 0 0 0 0 0 0 0 0 0 0 0 0 0 0 0
0 0 0 0 0 0 0 0 0 0 0 0 0 0 0 0 0 0 0 1 1 1 1 0 0 0 0 0 0 0 0 0 0 0 0 0 0 0 0 0 0 0 0 0
0 0 0 0 0 0 0 0 0 0 0 0 0 0 0 0 0 0 0 1 1 1 1 0 0 0 0 0 0 1 1 1 1 1 0 0 0 0 0 0 0 0 0 0
0 0 0 0 0 0 0 0 0 0 0 0 0 0 0 0 0 0 0 1 1 1 0 0 0 0 0 0 0 1 1 1 1 1 1 0 0 0 0 0 0 0 0 0
0 0 0 0 0 0 0 0 0 0 0 0 0 0 0 0 0 0 0 0 1 1 0 0 0 0 0 0 1 1 1 1 1 1 1 0 0 0 0 0 0 0 0 0
0 0 0 0 0 0 0 0 0 0 0 0 0 0 0 0 0 0 0 0 0 0 0 0 0 0 0 1 1 1 2 2 1 1 1 0 0 0 0 0 0 0 0 0
0 0 0 0 0 0 0 0 0 0 0 0 0 0 0 0 0 0 0 0 0 0 0 0 0 0 1 1 1 2 2 2 1 1 0 0 0 0 0 0 0 0 0 0
0 0 0 0 0 0 0 0 0 0 0 0 0 0 0 0 0 0 0 0 0 0 0 0 0 0 1 1 2 2 2 2 1 0 0 0 0 0 0 0 0 0 0 0
0 0 0 0 0 0 0 0 0 0 0 0 0 0 0 0 0 0 0 0 0 0 0 0 0 1 1 1 2 2 2 1 1 0 0 0 0 0 0 0 0 0 0 0
0 0 0 0 0 0 0 0 0 0 0 0 0 0 0 0 0 0 0 0 0 0 0 0 0 0 1 1 2 2 1 1 0 0 0 0 0 0 0 0 0 0 0 0
0 0 0 0 0 0 0 0 0 0 0 0 0 0 0 0 0 0 0 0 0 0 0 0 0 0 0 1 1 1 1 0 0 0 0 0 0 0 0 0 0 0 0 0
0 0 0 0 0 0 0 0 0 0 0 1 1 1 1 1 1 1 0 0 0 0 0 0 0 0 0 0 0 0 0 0 0 0 0 0 0 0 0 0 0 0 0 0
0 0 0 0 0 0 0 0 0 0 1 1 1 1 1 1 1 1 0 0 0 0 0 0 0 0 0 0 0 0 0 0 0 0 0 0 0 0 0 0 0 0 0 0
0 0 0 0 0 0 0 0 1 1 0 0 1 1 1 1 1 1 0 0 0 0 0 0 0 0 0 0 0 0 0 0 0 0 0 0 0 0 0 0 0 0 0 0
0 0 0 0 0 0 0 0 1 1 0 0 0 1 1 1 1 1 0 0 0 0 0 0 0 1 1 0 0 0 0 0 0 0 0 0 0 0 0 0 0 0 0 0
0 0 0 0 0 0 0 1 1 1 0 0 0 0 0 0 0 0 0 0 0 0 0 0 0 1 1 1 0 0 0 0 0 0 0 0 0 0 0 0 0 0 0 0
0 0 0 0 0 0 0 1 1 1 0 0 0 0 0 0 0 0 0 0 0 0 0 0 0 1 1 1 0 0 1 0 0 0 0 0 0 0 0 0 0 0 0 0
0 0 0 0 0 0 0 1 1 0 0 0 0 0 0 0 0 0 0 0 0 0 0 0 0 0 0 0 0 0 1 0 0 0 0 0 0 0 0 0 0 0 0 0
0 0 0 0 0 0 0 0 0 0 0 0 0 0 0 0 0 0 0 0 0 0 0 0 0 0 0 0 0 0 0 0 0 0 0 0 0 0 0 0 0 0 0 0
0 0 0 0 1 1 0 0 0 0 0 0 0 0 0 0 0 0 0 0 0 0 0 0 0 0 0 0 0 0 0 0 0 0 0 0 0 0 0 0 0 0 0 0
0 0 0 0 1 1 0 0 0 0 0 0 0 0 0 0 0 0 0 0 0 0 0 0 0 0 0 0 0 0 0 0 0 0 0 0 0 0 0 0 0 0 0 0
Wind_Speed
3 0 6 11 9 9 6 3 2 2 2 2 3 3 4 4 5 6 5 6 7 8 7 7 8 9 8 7 7 6 6 5 4 3 3 3 2 2 2 2 3 4 3 4
4 8 17 13 9 6 4 2 1 0 1 3 1 1 3 5 5 7 8 9 8 7 7 8 8 9 8 8 7 7 7 6 5 3 3 2 3 2 2 2 3 3 4 4
7 12 9 3 2 3 0 3 5 4 2 4 2 2 2 2 3 5 7 7 8 10 11 10 10 9 9 9 9 8 7 6 6 5 3 2 3 2 2 1 1 2 3 4
7 7 4 3 1 3 1 4 8 7 5 1 1 2 4 2 2 5 7 8 9 10 9 9 11 10 11 11 9 8 8 7 6 5 5 4 3 2 3 2 2 2 3 3
6 4 3 2 0 4 3 3 5 5 5 4 4 1 7 0 3 6 8 10 10 11 12 12 12 13 12 12 10 9 8 7 7 6 7 6 4 3 2 2 2 2 1 2
6 3 2 3 1 5 8 5 6 5 5 4 2 0 6 4 6 6 8 10 10 12 12 12 11 11 11 11 9 9 9 8 7 7 7 7 7 5 4 3 2 1 1 1
6 7 4 1 1 2 5 5 4 6 6 2 3 2 9 8 7 9 11 11 11 11 12 12 11 11 12 12 11 10 11 9 8 8 7 7 7 7 6 4 3 2 1 2
1 8 5 2 4 4 3 7 5 3 3 2 2 4 9 8 6 8 10 10 11 12 12 14 14 13 13 14 13 12 12 9 9 8 7 7 7 5 4 4 4 4 3 3
3 6 5 2 2 4 1 2 5 7 3 1 4 6 9 4 2 6 8 10 12 14 14 15 14 13 13 13 13 14 13 10 9 9 7 7 7 6 6 5 4 3 3 3
4 4 6 2 4 3 4 3 5 5 5 2 3 5 6 5 5 6 7 10 13 13 14 14 13 13 12 12 11 11 12 11 9 9 8 7 7 7 6 5 5 5 4 4
2 3 4 4 2 1 2 2 3 3 6 6 4 8 9 11 10 9 11 12 14 14 15 14 13 12 11 10 10 10 10 9 8 9 8 7 7 7 6 6 6 6 5 5
3 5 0 3 3 2 2 4 5 3 2 5 5 9 7 10 11 10 11 12 12 13 13 13 12 10 10 10 11 11 11 10 10 9 8 8 7 7 6 6 6 6 6 6
2 5 3 6 8 5 1 2 4 5 3 3 4 8 5 4 6 8 9 10 11 11 10 9 9 10 11 12 12 12 12 11 10 9 9 8 7 7 7 7 6 6 6 6
3 4 6 7 8 5 3 3 1 3 2 3 5 5 4 5 6 6 7 9 9 10 10 10 10 11 12 12 12 12 12 11 10 9 9 9 9 9 8 7 7 7 7 7
5 3 4 6 5 3 2 3 1 1 3 4 5 4 6 7 6 6 5 5 6 8 10 12 12 11 11 11 11 11 11 10 10 10 10 10 9 8 8 7 7 7 7 8
3 3 1 3 3 2 2 2 1 3 4 3 4 4 6 4 2 2 1 2 4 7 9 11 12 12 13 14 13 12 12 11 10 11 11 10 9 8 8 8 8 7 7 7
2 3 2 4 4 3 2 1 5 8 6 5 4 4 6 8 8 5 3 3 2 4 5 7 9 11 12 13 13 14 14 11 10 11 10 9 10 10 10 9 8 8 8 7
4 4 3 1 3 1 4 1 8 12 8 6 4 5 5 5 5 7 8 5 3 1 2 4 5 6 7 8 9 10 9 9 11 10 9 9 10 10 9 9 9 9 7 6
5 6 4 3 2 2 1 1 2 6 4 2 3 5 6 5 9 10 12 8 6 5 3 0 3 3 4 5 6 7 7 7 8 9 10 10 10 10 9 9 9 8 6 7
4 5 5 3 3 4 4 1 1 8 1 3 2 3 4 5 5 4 8 9 11 10 9 8 7 7 5 3 1 3 5 6 8 10 10 9 9 9 9 10 9 7 7 8
3 3 3 3 3 5 3 2 2 3 7 6 4 3 4 4 4 1 4 7 9 11 11 10 10 10 8 7 4 2 1 3 6 5 4 5 6 7 7 6 5 5 6 7
4 3 2 3 2 5 2 1 2 5 2 4 3 4 7 7 6 3 5 7 9 10 11 11 10 9 9 9 7 6 4 4 3 1 0 2 3 3 4 5 5 5 6 7
4 6 6 5 5 3 2 3 2 1 2 3 3 5 8 8 6 6 6 7 8 8 8 7 8 9 9 9 8 7 6 5 5 4 3 2 2 2 2 3 4 4 5 6
2 3 5 2 1 0 0 1 1 2 3 5 7 8 8 8 7 7 7 6 7 7 6 6 8 8 8 8 8 6 5 6 6 6 5 4 4 4 4 3 3 4 5 6
4 4 4 3 2 3 2 2 4 7 8 10 10 9 8 9 7 6 5 5 5 5 5 5 6 6 6 6 6 6 6 5 6 5 5 4 4 4 5 5 5 6 7 8
3 7 8 7 8 6 4 2 6 10 9 8 10 10 8 8 7 6 4 4 4 5 5 5 5 5 5 6 6 6 5 5 5 5 5 4 4 4 5 6 8 10 12 15
Wind_Direction
284 14 257 247 220 214 217 187 217 233 207 114 144 178 185 167 168 176 180 179 171 166 163 159 160 155 146 141 143 151 148 152 134 121 122 123 137 152 156 172 154 138 119 100
337 272 257 255 251 217 200 148 99 23 119 103 105 249 214 182 185 187 184 186 180 172 166 165 167 162 159 158 160 163 162 161 155 152 157 159 152 160 166 167 159 159 141 133
231 258 277 283 212 156 156 161 164 172 100 65 84 344 266 216 181 190 191 195 186 181 174 172 172 174 169 170 176 176 178 173 171 161 133 98 76 68 76 112 181 197 169 152
257 271 330 10 74 121 223 180 152 146 121 13 56 304 291 208 191 198 196 193 189 184 178 180 178 180 182 185 184 181 182 181 178 162 148 146 146 156 181 181 196 213 194 171
271 304 336 328 219 125 157 114 104 115 108 63 15 20 295 250 214 217 202 194 191 188 185 188 187 187 189 189 188 186 183 185 181 170 159 148 146 158 161 149 160 201 235 192
268 282 242 249 275 131 127 88 57 52 66 40 310 69 286 233 213 210 204 198 191 189 190 192 193 190 193 193 190 184 183 188 182 174 165 158 158 164 160 164 177 222 275 183
324 312 291 233 33 98 122 96 30 5 20 295 277 258 258 246 220 197 197 198 193 190 190 193 195 194 196 195 194 188 184 188 183 176 173 171 170 171 175 183 188 193 190 179
281 288 272 231 181 187 181 135 155 196 200 277 318 264 264 264 233 194 189 192 192 192 193 197 201 199 197 195 193 188 186 186 182 179 180 177 170 167 172 180 177 181 189 195
202 264 289 251 179 135 122 180 163 128 112 95 281 288 299 287 207 180 184 186 193 195 197 201 203 200 195 192 190 188 184 182 182 181 176 177 176 173 175 178 175 180 192 189
164 261 295 310 52 30 144 145 82 103 140 182 262 265 250 249 223 197 193 195 199 198 200 203 202 199 196 191 187 181 179 180 179 177 179 184 185 183 180 178 186 191 196 186
159 199 310 23 54 303 26 53 94 128 153 152 209 256 225 212 216 209 208 204 201 200 200 201 202 198 189 180 174 174 176 172 174 179 181 177 183 185 183 188 200 201 205 203
216 139 207 286 272 251 180 167 138 136 235 163 175 258 249 203 209 205 211 213 207 203 200 199 194 183 175 174 173 175 177 176 180 180 176 179 182 182 186 198 208 207 210 210
160 111 70 345 334 333 304 214 157 141 129 164 173 257 273 217 225 219 213 209 207 203 197 190 181 176 177 178 178 179 181 183 181 177 176 180 185 188 196 204 207 206 207 212
134 129 157 195 230 245 267 282 263 110 154 230 225 241 278 239 230 230 216 203 198 196 187 182 181 182 182 181 181 183 187 186 182 179 180 187 194 196 200 203 205 207 207 209
112 164 210 219 230 209 235 271 303 132 198 195 250 237 245 235 216 215 215 198 179 179 179 181 182 183 185 185 188 189 191 190 185 182 189 197 198 196 197 201 207 209 210 214
116 167 244 289 277 279 281 298 27 39 20 35 30 352 318 323 38 62 89 140 167 178 182 183 183 184 189 192 193 194 197 195 186 189 198 197 191 194 199 204 206 208 213 217
128 138 136 272 300 33 300 277 103 82 46 62 60 320 338 17 34 25 25 74 137 167 172 180 186 191 196 198 195 198 201 193 190 197 200 195 192 197 204 206 205 209 213 215
136 123 139 213 26 260 257 335 111 99 66 57 60 14 20 38 38 33 22 36 37 63 148 184 195 198 201 197 197 199 190 187 193 199 201 198 195 202 204 202 207 212 210 210
135 136 127 124 143 262 287 342 136 111 61 10 62 35 34 17 35 23 9 21 37 43 42 214 203 204 205 209 203 185 186 189 193 200 202 200 198 201 202 207 213 210 205 213
50 89 113 118 139 222 236 296 158 107 110 260 125 77 46 44 53 345 348 19 32 34 34 32 31 35 25 317 222 173 195 194 211 215 211 204 198 199 204 212 215 210 207 216
34 42 102 146 182 250 263 322 31 152 217 209 189 145 105 103 139 201 7 33 40 41 38 38 42 40 22 11 46 68 349 253 244 236 215 206 206 210 214 218 218 216 218 222
161 147 175 144 161 243 280 38 193 221 194 167 155 123 111 112 115 96 60 48 42 41 37 37 40 35 25 26 43 43 7 312 332 12 253 232 224 224 227 226 232 228 225 230
181 178 171 176 202 224 203 189 239 167 142 150 130 112 116 113 103 83 62 50 44 43 37 33 38 34 25 25 38 35 357 2 24 30 11 340 312 284 263 240 244 247 236 236
227 127 116 126 257 219 151 93 59 99 103 99 101 104 103 99 88 73 59 47 39 33 33 32 38 35 22 16 28 25 16 31 38 28 10 355 343 327 316 294 267 256 251 250
197 145 122 129 157 94 37 59 103 98 90 88 86 88 93 91 79 72 59 43 35 29 22 32 38 31 16 13 19 19 23 34 34 19 1 346 333 317 306 295 278 268 256 249
204 169 166 185 183 151 161 161 119 107 102 99 93 81 73 82 80 68 52 33 30 24 21 25 25 23 14 18 16 9 15 32 31 9 349 334 326 317 307 302 301 283 272 271